Weather History for Crestview, FL

Change the Weather History Date:

Tuesday, November 1, 2011

  Actual Average Record
Temperature  
Mean Temperature 54 °F -  
Max Temperature 73 °F - - ()
Min Temperature 35 °F - - ()
Degree Days  
Heating Degree Days 11    
Growing Degree Days 4 (Base 50)    
Moisture  
Dew Point 37 °F    
Average Humidity 59    
Maximum Humidity 90    
Minimum Humidity 24    
Precipitation  
Precipitation 0.00 in - - ()
Sea Level Pressure  
Sea Level Pressure 30.23 in    
Wind  
Wind Speed 3 mph (NE)    
Max Wind Speed 14 mph    
Max Gust Speed 21 mph    
Visibility 10 miles    
Events      
T = Trace of Precipitation, MM = Missing Value Source: NWS Daily Summary

Daily Weather History Graph

Daily Weather History Graph

Search for Another Location

Airport:

Trip Planner

Search our weather history database for the weather conditions in past years. The results will help you decide how hot, cold, wet, or windy it might be!

Date:

Astronomy

Nov. 01, 2011 Rise Set
Actual Time 7:00 AM CDT 5:58 PM CDT
Civil Twilight 6:35 AM CDT 6:23 PM CDT
Nautical Twilight 6:07 AM CDT 6:51 PM CDT
Astronomical Twilight 5:39 AM CDT 7:19 PM CDT
Moon 12:42 PM CDT (11/1) 11:42 PM CDT (11/1)
Length of Visible Light 11h 47m
Length of Day
10h 57m
Waxing Crescent, 40% of the Moon is Illuminated
Nov 1
Waxing Crescent
Nov 2
First Quarter
Nov 10
Full
Nov 18
Last Quarter
Nov 25
New

Hourly Weather History & Observations

Time (CDT) Temp. Windchill Dew Point Humidity Pressure Visibility Wind Dir Wind Speed Gust Speed Precip Events Conditions
12:55 AM 42.6 °F - 35.6 °F 76% 30.19 in 10.0 mi Calm Calm - N/A   Clear
1:55 AM 42.3 °F 40.5 °F 35.2 °F 76% 30.20 in 10.0 mi North 3.5 mph - N/A   Clear
2:55 AM 40.5 °F 38.4 °F 35.1 °F 81% 30.20 in 10.0 mi NNW 3.5 mph - N/A   Clear
3:55 AM 38.3 °F - 34.5 °F 86% 30.20 in 10.0 mi Calm Calm - N/A   Clear
4:55 AM 37.2 °F - 34.2 °F 89% 30.21 in 10.0 mi Calm Calm - N/A   Clear
5:55 AM 36.5 °F - 33.4 °F 89% 30.22 in 10.0 mi Calm Calm - N/A   Clear
6:55 AM 35.2 °F 32.4 °F 32.5 °F 90% 30.24 in 10.0 mi North 3.5 mph - N/A   Clear
7:55 AM 42.4 °F - 39.4 °F 89% 30.26 in 10.0 mi Calm Calm - N/A   Clear
8:55 AM 52.5 °F - 43.0 °F 70% 30.27 in 10.0 mi NE 5.8 mph - N/A   Clear
9:55 AM 61.9 °F - 42.4 °F 49% 30.28 in 10.0 mi ENE 11.5 mph - N/A   Clear
10:55 AM 66.6 °F - 38.7 °F 36% 30.27 in 10.0 mi ENE 13.8 mph 20.7 mph N/A   Partly Cloudy
11:55 AM 69.1 °F - 37.2 °F 31% 30.26 in 10.0 mi ENE 6.9 mph - N/A   Partly Cloudy
12:55 PM 70.5 °F - 37.9 °F 30% 30.23 in 10.0 mi East 8.1 mph - N/A   Partly Cloudy
1:55 PM 72.3 °F - 36.1 °F 27% 30.20 in 10.0 mi East 6.9 mph - N/A   Partly Cloudy
2:55 PM 73.4 °F - 34.9 °F 24% 30.19 in 10.0 mi East 6.9 mph - N/A   Scattered Clouds
3:55 PM 73.6 °F - 34.2 °F 24% 30.20 in 10.0 mi NE 5.8 mph - N/A   Scattered Clouds
4:55 PM 72.5 °F - 36.5 °F 27% 30.20 in 10.0 mi ENE 3.5 mph - N/A   Clear
5:55 PM 67.3 °F - 37.4 °F 33% 30.21 in 10.0 mi NE 3.5 mph - N/A   Clear
6:55 PM 56.5 °F - 40.3 °F 55% 30.22 in 10.0 mi NE 2.3 mph - N/A   Clear
7:55 PM 50.0 °F - 38.7 °F 65% 30.24 in 10.0 mi ENE 3.5 mph - N/A   Clear
8:55 PM 49.3 °F - 36.9 °F 62% 30.25 in 10.0 mi East 3.5 mph - N/A   Clear
9:55 PM 49.3 °F - 36.9 °F 62% 30.25 in 10.0 mi East 2.3 mph - N/A   Clear
10:55 PM 44.6 °F 43.1 °F 35.6 °F 71% 30.25 in 10.0 mi ENE 3.5 mph - N/A   Clear
11:55 PM 42.1 °F - 35.1 °F 76% 30.25 in 10.0 mi Calm Calm - N/A   Clear